,S3,,,,,,,,,,,,,,,,,,,,,,,,,N3,,,,,,,,,,,,,,,,,,,,E23,,,,,,,,
,BattVolt,PanelTemp,T1,RH1,T2,RH2,T3,RH3,T_upper_sensor,T_upper_dome,T_lower_sensor,T_lower_dome,Rsd,Rsu,Rld,Rlu,Rn,G1,G2,G3,G_avg,Lw,T_Lw,TDR,Albedo,BattVolt,PanelTemp,T1,RH1,T2,RH2,T3,RH3,Rsd,Rsu,Rld,Rlu,Rn,G1,G2,G3,Lw_cal,T_Kipp,T_Lw,Albedo,BattVolt,PanelTemp,Rn,Lup,Sup,G1,G2,T1,T2
2003/10/3 0:05,,,,,,,,,,,,,,,,,,,,,,,,,,12.211,14.677,14.122,87.217,14.454,84.974,16.486,90.311,0,0,334.0035813,387.4291473,-53.425566,,-28.4082624,-22.059289,3.923747277,15.044,16169,,12.151,12.265,,101.9777778,0,,,,
2003/10/3 0:10,,,,,,,,,,,,,,,,,,,,,,,,,,12.211,14.67,13.975,87.304,14.354,85.197,16.326,89.852,0,0,333.3153685,384.5093395,-51.193971,,-28.8880704,-22.3557922,10.2962963,14.921,16199,,12.151,12.251,,107.9555556,0,,,,
2003/10/3 0:15,,,,,,,,,,,,,,,,,,,,,,,,,,12.21,14.652,13.562,88.422,14.193,85.803,16.034,90.759,0,0,334.0179586,383.0276026,-49.009644,,-30.191616,-24.4552388,12.07625272,14.773,16221,,12.151,12.236,,109.8469136,0,,,,
2003/10/3 0:20,,,,,,,,,,,,,,,,,,,,,,,,,,12.21,14.626,13.391,88.606,14.036,86.071,15.864,90.814,0,0,332.4158993,380.6119883,-48.196089,,-32.1745536,-27.3194754,13.26797386,14.532,16762,,12.153,12.225,,121.2987654,0,,,,
2003/10/3 0:25,,,,,,,,,,,,,,,,,,,,,,,,,,12.21,14.592,13.06,90.382,13.682,87.771,15.605,91.986,0,0,331.6495018,378.8684158,-47.218914,,-34.0699968,-29.9260366,12.58605664,14.255,17052,,12.151,12.198,,129.8518519,0,,,,
2003/10/3 0:30,,,,,,,,,,,,,,,,,,,,,,,,,,12.209,14.542,13.186,89.702,13.832,87.395,15.665,92.523,0,0,333.5505181,381.8984101,-48.347892,,-31.3455744,-25.8483332,7.165577342,14.277,17083,,12.152,12.155,,123.1259259,0,,,,
2003/10/3 0:35,,,,,,,,,,,,,,,,,,,,,,,,,,12.209,14.485,12.918,89.812,13.512,87.705,15.415,92.216,0,0,332.7273769,379.7963059,-47.068929,,-31.3302528,-25.1996344,10.61655773,14.064,17130,,12.153,12.098,,118.0518519,0,,,,
2003/10/3 0:40,,,,,,,,,,,,,,,,,,,,,,,,,,12.209,14.429,12.86,91.569,13.285,89.78,15.397,93.368,0,0,331.9636799,378.4190339,-46.455354,,-33.9780672,-29.7173862,10.98257081,13.855,17160,,12.153,12.042,,99.79506173,0,,,,
2003/10/3 0:45,,,,,,,,,,,,,,,,,,,,,,,,,,12.208,14.375,12.948,91.58,13.445,89.827,15.628,94.019,0,0,332.6577808,379.6948948,-47.037114,,-34.0171776,-29.5338366,6.71459695,13.82,17181,,12.151,11.987,,108.5975309,0,,,,
2003/10/3 0:50,,,,,,,,,,,,,,,,,,,,,,,,,,12.208,14.319,13.313,88.993,13.77,87.377,15.86,92.373,0,0,332.9441248,380.2193968,-47.275272,,-32.2265664,-26.0993412,5.718954248,13.899,17197,,12.153,11.921,,98.4617284,0,,,,
2003/10/3 0:55,,,,,,,,,,,,,,,,,,,,,,,,,,12.208,14.278,12.984,90.051,13.564,88.411,15.443,92.258,0,0,333.5810045,379.4382365,-45.857232,,-32.3273664,-27.0692518,7.68627451,13.757,17206,,12.153,11.843,,97.03703704,0,,,,
2003/10/3 1:00,,,,,,,,,,,,,,,,,,,,,,,,,,12.208,14.238,12.787,91.793,13.585,89.234,15.579,93.545,0,0,336.5034696,379.4273586,-42.923889,,-32.5249344,-27.657944,6.812636166,13.729,17213,,12.151,11.77,,111.8345679,0,,,,
2003/10/3 1:05,,,,,,,,,,,,,,,,,,,,,,,,,,12.208,14.212,12.83,91.718,13.654,88.931,15.736,93.747,0,0,340.6069728,378.9867708,-38.379798,,-32.4249408,-26.349957,6.82788671,13.69,17218,,12.151,11.699,,116.2962963,0,,,,
2003/10/3 1:10,,,,,,,,,,,,,,,,,,,,,,,,,,12.207,14.182,13.093,91.164,13.725,88.949,15.814,93.616,0,0,345.8825993,379.7537573,-33.871158,,-30.8222208,-25.916576,5.180827887,13.756,17221,,12.153,11.636,,110.691358,0,,,,
2003/10/3 1:15,,,,,,,,,,,,,,,,,,,,,,,,,,12.207,14.15,13.271,90.672,13.821,88.628,15.944,93.59,0.149985,0,350.0804034,381.6463374,-31.415949,,-28.2268224,-23.7767328,2.777777778,13.891,17223,,12.152,11.576,,115.837037,0
2003/10/3 1:20,,,,,,,,,,,,,,,,,,,,,,,,,,12.207,14.13,13.533,89.632,13.972,87.466,16.067,92.771,0.315423,0,350.2035192,384.3691932,-33.850251,,-25.5261888,-20.0563236,0.647058824,14.079,17225,,12.15,11.537,,117.8864198,0
2003/10/3 1:25,,,,,,,,,,,,,,,,,,,,,,,,,,12.207,14.113,13.348,90.101,13.828,88.531,15.96,92.823,0,0,345.6456056,384.1753886,-38.529783,,-25.42176,-19.5939198,2.339869281,14.176,17226,,12.15,11.509,,110.0296296,0
2003/10/3 1:30,,,,,,,,,,,,,,,,,,,,,,,,,,12.207,14.123,13.591,89.835,14.068,87.57,16.194,92.712,0,0,337.9887705,384.4595775,-46.470807,,-26.230176,-20.3449828,2.196078431,14.38,17227,,12.152,11.526,,106.962963,0
2003/10/3 1:35,,,,,,,,,,,,,,,,,,,,,,,,,,12.206,14.136,13.746,88.622,14.239,86.529,16.249,91.559,0,0,333.988468,382.695415,-48.706947,,-26.7668352,-21.0697684,6.139433551,14.406,17227,,12.151,11.57,,119.2938272,0
2003/10/3 1:40,,,,,,,,,,,,,,,,,,,,,,,,,,12.205,14.136,13.493,88.729,14.149,86.227,16.022,91.731,0,0,333.806852,383.578238,-49.771386,,-27.4925952,-21.4647138,4.790849673,14.403,17227,,12.152,11.629,,112.9555556,0
2003/10/3 1:45,,,,,,,,,,,,,,,,,,,,,,,,,,12.204,14.136,13.334,89.186,13.86,87.262,15.822,91.57,0,0,333.2335582,382.2259312,-48.992373,,-27.572832,-21.347446,8.039215686,14.327,17228,,12.153,11.681,,114.6148148,0
2003/10/3 1:50,,,,,,,,,,,,,,,,,,,,,,,,,,12.203,14.136,13.161,90.634,13.758,88.412,15.735,92.951,0,0,334.8592046,383.4052586,-48.546054,,-27.1748736,-20.8968082,5.60130719,14.281,17228,,12.152,11.716,,126.8246914,0
2003/10/3 1:55,,,,,,,,,,,,,,,,,,,,,,,,,,12.203,14.136,13.087,90.609,13.72,88.44,15.681,93.034,0,0,338.3049908,383.0296088,-44.724618,,-26.5624128,-20.576773,6.405228758,14.258,17228,,12.151,11.735,,122.2888889,0
2003/10/3 2:00,,,,,,,,,,,,,,,,,,,,,,,,,,12.202,14.12,13.205,90.538,13.859,87.815,15.789,93.372,0,0,337.996918,382.95424,-44.957322,,-26.3781504,-21.0329016,6.08496732,14.27,17228,,12.152,11.748,,105.1703704,0
2003/10/3 2:05,,,,,,,,,,,,,,,,,,,,,,,,,,12.202,14.114,13.164,90.574,13.749,88.058,15.716,93.024,0,0,337.1238656,381.5021546,-44.378289,,-28.3735872,-23.0982268,8.549019608,14.162,17228,,12.152,11.77,,108.4864198,0
2003/10/3 2:10,,,,,,,,,,,,,,,,,,,,,,,,,,12.202,14.114,13.09,90.698,13.727,88.445,15.648,93.366,0,0,337.2456108,383.4409908,-46.19538,,-27.389376,-21.7290566,4.877995643,14.175,17228,,12.152,11.77,,113.545679,0
2003/10/3 2:15,,,,,,,,,,,,,,,,,,,,,,,,,,12.202,14.133,13.267,90.966,13.835,88.23,15.79,93.966,0,0,338.5042228,385.1795548,-46.675332,,-25.8910848,-20.476762,1.376906318,14.309,17228,,12.151,11.754,,108.2987654,0
2003/10/3 2:20,,,,,,,,,,,,,,,,,,,,,,,,,,12.201,14.136,13.571,89.452,14.052,87.044,16.054,93.07,0,0,338.0923248,385.1339838,-47.041659,,-25.3858752,-19.9916106,3.021786492,14.504,17221,,12.151,11.748,,106.4518519,0
2003/10/3 2:25,,,,,,,,,,,,,,,,,,,,,,,,,,12.201,14.157,13.573,88.987,14.132,86.545,16.063,92.486,0,0,338.6083836,384.5510616,-45.942678,,-25.4346624,-20.0292618,4.773420479,14.559,17074,,12.153,11.763,,112.5555556,0
2003/10/3 2:30,,,,,,,,,,,,,,,,,,,,,,,,,,12.201,14.175,13.439,89.309,14.005,86.799,15.959,92.081,0,0,339.1677891,384.5723391,-45.40455,,-25.2165312,-19.2848662,6.082788671,14.535,17029,,12.153,11.796,,122.2888889,0
2003/10/3 2:35,,,,,,,,,,,,,,,,,,,,,,,,,,12.201,14.193,13.318,89.88,13.947,87.164,15.896,92.472,0,0,346.7475193,384.5437393,-37.79622,,-24.2012736,-18.4992896,6.453159041,14.526,17086,,12.152,11.828,,121.9308642,0
2003/10/3 2:40,,,,,,,,,,,,,,,,,,,,,,,,,,12.201,14.214,13.177,90.617,13.799,88.268,15.815,92.904,0,0,361.757365,386.383993,-24.626628,,-21.6570816,-16.7951806,2.891067538,14.518,17208,,12.151,11.867,,115.2419753,0
2003/10/3 2:45,,,,,,,,,,,,,,,,,,,,,,,,,,12.201,14.252,13.23,91.45,14.009,87.952,16.019,93.8,0.658116,0,371.3493133,388.9184653,-16.911036,,-18.2560896,-14.3647172,-0.603485839,14.717,16894,,12.151,11.894,,115.4790123,0
2003/10/3 2:50,,,,,,,,,,,,,,,,,,,,,,,,,,12.201,14.311,13.566,90.706,14.114,87.972,16.231,93.267,0.703566,0,370.5787222,390.0713182,-18.78903,,-16.2598464,-12.4182286,0.45751634,14.927,16271,,12.151,11.929,,105.5580247,0
2003/10/3 2:55,,,,,,,,,,,,,,,,,,,,,,,,,,12.201,14.385,13.615,91.644,14.025,89.374,16.223,93.715,0.29088,0,367.164685,389.920591,-22.465026,,-16.3360512,-12.5135332,1.289760349,15.014,16265,,12.152,11.993,,101.7703704,0
2003/10/3 3:00,,,,,,,,,,,,,,,,,,,,,,,,,,12.201,14.465,13.553,91.458,14.075,89.177,16.218,93.861,0.269973,0,372.4897449,389.9143659,-17.154648,,-15.8401152,-11.7675688,2.498910675,15.081,16265,,12.153,12.082,,106.7555556,0
2003/10/3 3:05,,,,,,,,,,,,,,,,,,,,,,,,,,12.201,14.55,13.705,91.204,14.094,89.02,16.252,93.951,0.192708,0,374.5053667,390.2228857,-15.524811,,-15.0264576,-11.60912,2.832244009,15.105,16265,,12.151,12.187,,98.77530864,0
2003/10/3 3:10,,,,,,,,,,,,,,,,,,,,,,,,,,12.201,14.638,13.691,90.473,14.274,87.597,16.3,93.544,0.265428,0,372.3373091,389.9091881,-17.306451,,-14.9373504,-11.1475006,2.708061002,15.154,16265,,12.153,12.299,,94.7037037,0
2003/10/3 3:15,,,,,,,,,,,,,,,,,,,,,,,,,,12.2,14.723,13.681,90.605,14.295,87.22,16.29,93.504,0.182709,0,373.0114713,390.4397283,-17.245548,,-14.884128,-11.5573496,2.904139434,15.171,16257,,12.151,12.413,,89.65925926,0
2003/10/3 3:20,,,,,,,,,,,,,,,,,,,,,,,,,,12.2,14.804,13.748,90.572,14.277,87.197,16.296,93.188,0,0,371.9655855,390.0655935,-18.100008,,-14.6772864,-11.381644,3.588235294,15.151,16184,,12.152,12.525,,89.59506173,0
2003/10/3 3:25,,,,,,,,,,,,,,,,,,,,,,,,,,12.2,14.878,13.551,91.021,14.188,87.921,16.208,93.184,0,0,372.8703868,389.6414368,-16.77105,,-14.9732352,-11.3839972,3.910675381,15.091,16211,,12.15,12.634,,79.80987654,0
2003/10/3 3:30,,,,,,,,,,,,,,,,,,,,,,,,,,12.199,14.943,13.498,91.968,14.009,88.215,16.092,93.563,0,0,374.597809,390.054445,-15.456636,,-14.2055424,-11.0800422,2.679738562,15.077,16213,,12.151,12.734,,82.03950617,0
2003/10/3 3:35,,,,,,,,,,,,,,,,,,,,,,,,,,12.198,15.002,13.273,91.886,14.041,87.298,15.96,93.903,0,0,373.4460361,390.1034611,-16.657425,,-14.4422208,-11.6487322,2.318082789,15.08,16167,,12.151,12.824,,95.32345679,0
2003/10/3 3:40,,,,,,,,,,,,,,,,,,,,,,,,,,12.197,15.061,13.355,92.749,14.003,87.865,15.874,94.244,0,0,376.5029567,390.4642877,-13.961331,,-14.241024,-11.9671986,2.061002179,15.082,16117,,12.152,12.904,,87.63950617,0
2003/10/3 3:45,,,,,,,,,,,,,,,,,,,,,,,,,,12.198,15.113,13.281,93.062,13.964,87.85,15.854,94.76,0,0,377.3824822,390.8247742,-13.442292,,-13.3209216,-10.5184118,1.335511983,15.06,16150,,12.151,12.982,,102.0049383,0
2003/10/3 3:50,,,,,,,,,,,,,,,,,,,,,,,,,,12.198,15.159,13.064,93.196,14.01,87.667,15.852,95.053,0,0,377.2066157,391.0115987,-13.804983,,-12.7899072,-9.9724694,0.755991285,15.078,16107,,12.151,13.055,,102.0049383,0
2003/10/3 3:55,,,,,,,,,,,,,,,,,,,,,,,,,,12.196,15.195,12.993,93.368,13.984,88.388,15.871,95.272,0,0,374.845318,390.749182,-15.903864,,-12.8181312,-9.7948028,1.586056645,15.066,16121,,12.149,13.124,,102.4148148,0
2003/10/3 4:00,,,,,,,,,,,,,,,,,,,,,,,,,,12.197,15.225,12.964,94.39,13.718,90.45,15.774,95.808,0,0,372.308743,390.303307,-17.994564,,-13.8132288,-10.8023646,2.019607843,15.013,16486,,12.152,13.196,,96.15555556,0
2003/10/3 4:05,,,,,,,,,,,,,,,,,,,,,,,,,,12.196,15.249,12.975,94.561,13.71,90.364,15.747,96.114,0,0,373.6314095,390.0224975,-16.391088,,-14.1978816,-11.4569464,1.949891068,14.978,16711,,12.152,13.26,,100.6148148,0
2003/10/3 4:10,,,,,,,,,,,,,,,,,,,,,,,,,,12.196,15.28,13.025,94.535,13.782,89.783,15.744,96.291,0,0,375.4823674,390.5254084,-15.043041,,-14.7337344,-12.5919732,0.411764706,14.97,16852,,12.151,13.32,,111.0864198,0
2003/10/3 4:15,,,,,,,,,,,,,,,,,,,,,,,,,,12.196,15.312,13.073,94.468,13.771,90.124,15.778,96.356,0,0,382.4587729,391.6260379,-9.167265,,-12.3496128,-10.0018844,-0.697167756,15.008,16808,,12.15,13.374,,107.2567901,0
2003/10/3 4:20,,,,,,,,,,,,,,,,,,,,,,,,,,12.196,15.34,13.214,94.536,13.793,89.394,15.826,96.421,0.304515,0,385.32042,392.823306,-7.198371,,-10.4102208,-8.0299028,-2.132897603,15.075,16766,,12.151,13.421,,107.9234568,0
2003/10/3 4:25,,,,,,,,,,,,,,,,,,,,,,,,,,12.196,15.374,13.199,94.831,13.871,89.644,15.895,96.544,0.304515,0,386.0236663,393.2147653,-6.886584,,-9.7521984,-7.2878604,-2.180827887,15.131,16670,,12.15,13.469,,99.44444444,0
2003/10/3 4:30,,,,,,,,,,,,,,,,,,,,,,,,,,12.196,15.415,13.37,94.44,14.037,89.807,15.993,96.634,0.339966,0,382.1463226,393.4188316,-10.932543,,-9.9437184,-7.1882416,-2.300653595,15.206,16226,,12.15,13.526,,105.8493827,0
2003/10/3 4:35,,,,,,,,,,,,,,,,,,,,,,,,,,12.196,15.465,13.394,94.173,14.126,90.098,16.111,96.509,0.304515,0,385.9179509,393.6289979,-7.406532,,-10.3759488,-8.2299248,-2.013071895,15.255,15927,,12.15,13.584,,105.0469136,0
2003/10/3 4:40,,,,,,,,,,,,,,,,,,,,,,,,,,12.196,15.521,13.441,94.645,13.913,91.449,16.091,96.567,0.304515,0,387.8970247,394.0736797,-5.87214,,-9.9074304,-8.6668356,-1.819172113,15.318,15837,,12.151,13.649,,94.52098765,0
2003/10/3 4:45,,,,,,,,,,,,,,,,,,,,,,,,,,12.196,15.577,13.396,93.529,13.914,91.236,16.144,96.633,0.304515,0,386.4538903,394.2494743,-7.491069,,-9.382464,-7.6271134,-2.069716776,15.389,15834,,12.149,13.715,,95.61234568,0
2003/10/3 4:50,,,,,,,,,,,,,,,,,,,,,,,,,,12.196,15.627,13.607,92.762,14.055,89.717,16.267,96.377,0.304515,0,381.8822709,393.8528919,-11.666106,,-10.2658752,-8.4648526,-1.379084967,15.456,15831,,12.148,13.78,,102.4814815,0
2003/10/3 4:55,,,,,,,,,,,,,,,,,,,,,,,,,,12.195,15.678,13.851,92.502,14.245,88.221,16.346,95.93,0.304515,0,386.669087,394.201061,-7.227459,,-10.0328256,-7.9463642,-0.85620915,15.535,15830,,12.15,13.849,,96.35802469,0
2003/10/3 5:00,,,,,,,,,,,,,,,,,,,,,,,,,,12.195,15.721,13.629,93.402,14.168,91.152,16.381,95.956,0.188163,0,387.7038981,394.7468301,-6.854769,,-8.8828992,-6.651712,-0.795206972,15.613,15829,,12.15,13.916,,98.6962963,0
2003/10/3 5:05,,,,,,,,,,,,,,,,,,,,,,,,,,12.195,15.756,13.754,94.821,13.94,92.593,16.329,96.418,0,0,386.7050492,394.6642532,-7.959204,,-8.892576,-7.1294116,-0.773420479,15.632,15828,,12.149,13.978,,80.6691358,0
2003/10/3 5:10,,,,,,,,,,,,,,,,,,,,,,,,,,12.195,15.788,13.801,94.994,14.014,92.477,16.345,96.657,0,0,388.4633312,395.2272002,-6.763869,,-8.7022656,-7.1894182,-0.753812636,15.663,15828,,12.15,14.039,,78.98765432,0
2003/10/3 5:15,,,,,,,,,,,,,,,,,,,,,,,,,,12.195,15.827,13.801,94.056,14.097,91.537,16.396,96.682,0.447228,0,389.7828501,395.7440721,-5.513994,,-8.6018688,-7.1172534,-2.368191721,15.713,15827,,12.149,14.101,,94.83209877,0
2003/10/3 5:20,,,,,,,,,,,,,,,,,,,,,,,,,,12.195,15.869,14.188,92.231,14.438,89.989,16.696,95.953,0.799011,0,387.8020437,395.9521377,-7.351083,,-9.2994048,-7.0509716,-1.873638344,15.908,15827,,12.15,14.158,,89.45679012,0
2003/10/3 5:25,,,,,,,,,,,,,,,,,,,,,,,,,,12.195,15.903,14.327,91.518,14.516,89.678,16.775,95.42,0.306333,0,387.742566,396.029919,-7.98102,,-9.4768128,-6.7642734,-0.411764706,15.997,15827,,12.149,14.214,,89.06419753,0
2003/10/3 5:30,,,,,,,,,,,,,,,,,,,,,,,,,,12.195,15.939,14.312,91.141,14.503,89.535,16.787,94.901,0.301788,0,387.3686823,395.9714583,-8.300988,,-9.057888,-6.7819224,0.721132898,15.987,15827,,12.151,14.268,,79.14074074,0
2003/10/3 5:35,,,,,,,,,,,,,,,,,,,,,,,,,,12.195,15.979,14.288,91.347,14.518,89.24,16.786,94.665,0,0,386.7714693,395.8314723,-9.060003,,-8.8554816,-7.0788178,0.91503268,15.987,15827,,12.149,14.322,,89.62716049,0
2003/10/3 5:40,,,,,,,,,,,,,,,,,,,,,,,,,,12.194,16.014,14.227,91.96,14.492,90.028,16.769,94.749,0,0,386.9544918,395.9908608,-9.036369,,-8.6490432,-6.4760064,1.411764706,15.998,15827,,12.149,14.37,,91.33580247,0
2003/10/3 5:45,,,,,,,,,,,,,,,,,,,,,,,,,,12.194,16.044,14.134,91.445,14.436,88.381,16.721,94.649,0.155439,0,386.4458608,395.8921888,-9.290889,,-8.8699968,-6.630141,0.265795207,16.012,15827,,12.15,14.413,,95.64691358,0
2003/10/3 5:50,,,,,,,,,,,,,,,,,,,,,,,,,,12.193,16.067,14.175,89.399,14.662,86.279,16.915,93.471,1.23624,0,383.9569799,395.9203289,-10.727109,,-9.2631168,-7.4251304,0.660130719,16.096,15827,,12.151,14.452,,100.7012346,0
2003/10/3 5:55,,,,,,,,,,,,,,,,,,,,,,,,,,12.193,16.089,14.313,89.988,14.792,87.145,17.09,92.257,1.294416,0,382.2789316,395.3467156,-11.773368,,-9.5929344,-7.4796462,2.161220044,16.095,15827,,12.151,14.48,,95.28888889,0
2003/10/3 6:00,,,,,,,,,,,,,,,,,,,,,,,,,,12.192,16.1,14.235,91.126,14.546,88.627,16.872,92.577,1.307142,0,382.6146345,395.1142935,-11.192517,,-9.8082432,-7.8090942,2.849673203,16.019,15827,,12.15,14.507,,100.4790123,0
2003/10/3 6:05,,,,,,,,,,,,,,,,,,,,,,,,,,12.192,16.113,14.144,92.299,14.386,89.69,16.745,93.594,2.626101,0,384.2012465,395.5973795,-8.770032,,-9.2772288,-6.8078076,1.723311547,16.002,15827,,12.15,14.526,,97.13580247,0
2003/10/3 6:10,,,,,,,,,,,,,,,,,,,,,,,,,,12.192,16.113,13.931,92.834,14.316,90.548,16.686,94.566,5.494905,0,370.3913782,394.7089462,-18.822663,,-11.4674112,-8.4315156,2.034858388,15.957,15827,,12.151,14.538,,88.78024691,0
2003/10/3 6:15,,,,,,,,,,,,,,,,,,,,,,,,,,12.192,16.113,14.288,90.117,14.592,87.591,16.843,93.31,10.786194,0,371.7121371,394.9716291,-12.473298,,-12.7786176,-9.9371714,0.869281046,16.05,15827,,12.15,14.55,,98.48148148,0
2003/10/3 6:20,,,,,,,,,,,,,,,,,,,,,,,,,,12.191,16.113,14.366,89.116,14.744,87.226,17.021,92.489,11.781549,0.238804249,380.1444426,396.4482666,-4.761079249,,-10.803744,-8.1993332,0.37254902,16.189,15827,0.020269342,12.15,14.571,,103.8592593,0
2003/10/3 6:25,,,,,,,,,,,,,,,,,,,,,,,,,,12.191,16.127,14.506,89.294,14.74,87.716,17.078,92.189,13.240494,0.238804249,379.8706336,396.6253216,-3.752998249,,-9.6675264,-7.0725426,0.692810458,16.25,15827,0.018035902,12.15,14.586,,101.7481481,0
2003/10/3 6:30,,,,,,,,,,,,,,,,,,,,,,,,,,12.191,16.149,14.447,89.589,14.663,87.607,17.006,92.41,17.006481,0.923370331,379.2401543,396.9529283,-1.629663331,,-8.6179968,-7.5216116,0.729847495,16.279,15827,0.054295203,12.149,14.606,,88.99012346,0
2003/10/3 6:35,,,,,,,,,,,,,,,,,,,,,,,,,,12.193,16.189,14.559,88.185,14.759,86.71,17.081,91.562,24.548454,2.295277763,378.1961169,397.6123569,2.836936237,,-6.7463424,-6.0324282,0.206971678,16.346,15827,0.093499891,12.15,14.641,,98.1037037,0
2003/10/3 6:40,,,,,,,,,,,,,,,,,,,,,,,,,,12.195,16.234,14.599,88.32,14.79,86.466,17.135,91.377,31.74228,3.681986624,377.9630533,398.8891423,7.134204376,,-3.8884608,-3.0293528,-1.241830065,16.445,15827,0.115996287,12.15,14.684,,96.11851852,5.655085129
2003/10/3 6:45,,,,,,,,,,,,,,,,,,,,,,,,,,12.196,16.29,14.914,86.837,15.087,84.825,17.333,90.747,38.549781,5.454457723,377.4254359,399.6123079,10.90845128,,-4.6037376,-3.2148634,-1.849673203,16.65,15713,0.141491277,12.15,14.742,,108.2049383,22.82629155
2003/10/3 6:50,,,,,,,,,,,,,,,,,,,,,,,,,,12.198,16.357,15.21,85.958,15.359,83.844,17.664,89.296,50.419503,8.019730351,372.3802972,400.4511262,14.32894365,,-4.2211008,-2.6069534,-1.052287582,16.93,15048,0.159060083,12.149,14.816,,81.64444444,41.0063485
2003/10/3 6:55,,,,,,,,,,,,,,,,,,,,,,,,,,12.202,16.44,15.311,85.91,15.482,84.322,17.829,88.63,64.988955,10.80702441,368.8814065,401.2009015,21.86243559,,-3.4888896,-1.9861008,-0.444444444,17.164,15010,0.166290171,12.149,14.912,,78.97037037,62.94085087
2003/10/3 7:00,,,,,,,,,,,,,,,,,,,,,,,,,,12.208,16.533,15.409,86.16,15.511,84.774,17.907,89.054,77.641326,13.50273463,366.3087945,402.6987915,27.74859437,,-0.9019584,0.2623818,-0.751633987,17.369,15010,0.173911695,12.148,15.037,,83.11111111,96.35653898
2003/10/3 7:05,,,,,,,,,,,,,,,,,,,,,,,,,,12.214,16.648,15.654,84.34,15.825,82.574,18.168,87.959,117.70641,27.07842011,363.6926612,405.5657462,48.75490489,,1.9623744,3.1995676,-5.08496732,17.732,15010,0.230050514,12.149,15.193,,71.48888889,131.074137
2003/10/3 7:10,,,,,,,,,,,,,,,,,,,,,,,,,,12.216,16.797,15.951,83.679,16.065,82.302,18.479,86.95,105.81669,19.97835973,372.7953174,407.0746164,51.55903127,,6.0790464,6.7744706,-2.030501089,18.153,14813,0.188801594,12.149,15.391,,88.11604938,241.8315738
2003/10/3 7:15,,,,,,,,,,,,,,,,,,,,,,,,,,12.22,16.981,16.117,83.294,16.201,81.839,18.675,86.251,101.92617,18.85437623,372.9195503,407.7860633,48.20528077,,7.0406784,7.426307,-0.089324619,18.429,14133,0.184980719,12.149,15.671,,80.89876543,232.443299
2003/10/3 7:20,,,,,,,,,,,,,,,,,,,,,,,,,,12.223,17.181,16.156,82.567,16.261,81.195,18.707,85.686,106.40754,19.58242151,370.0062671,407.8533911,48.97799449,,6.856416,7.0776412,1.418300654,18.582,14059,0.184032274,12.149,16.026,,75.58518519,222.441242
2003/10/3 7:25,,,,,,,,,,,,,,,,,,,,,,,,,,12.227,17.38,16.171,82.511,16.358,80.714,18.852,85.319,119.40624,22.60191299,370.7589616,409.2360226,58.32726601,,8.3664,8.5072102,0.851851852,18.752,14020,0.189285861,12.148,16.399,,87.68888889,230.7748487
2003/10/3 7:30,,,,,,,,,,,,,,,,,,,,,,,,,,12.23,17.579,16.682,78.334,16.67,76.81,19.075,81.595,131.33232,25.68986107,380.3584169,410.4363179,75.56455793,,9.8888832,10.2830918,-0.246187364,19.047,13993,0.195609588,12.148,16.758,,75.66666667,270.4545736
2003/10/3 7:35,,,,,,,,,,,,,,,,,,,,,,,,,,12.238,17.785,17.102,75.901,17.108,74.083,19.537,79.021,237.26718,56.65907557,386.9785636,415.9083976,151.6782704,,17.6283072,16.4986774,-7.952069717,19.565,13896,0.238798622,12.148,17.11,,97.25679012,339.0944462
2003/10/3 7:40,,,,,,,,,,,,,,,,,,,,,,,,,,12.24,18.031,17.613,72.972,17.559,71.482,20.142,75.541,161.41113,35.08691818,389.5861083,415.6462293,100.2640908,,18.4472064,17.9709962,0.459694989,20.306,13320,0.217376077,12.146,17.479,,93.44938272,652.2789935
2003/10/3 7:45,,,,,,,,,,,,,,,,,,,,,,,,,,12.236,18.318,17.456,69.109,17.535,67.665,20.005,71.421,102.96243,18.57129891,389.9459031,411.4910211,62.84601309,,5.8588992,7.3019796,10.61002179,20.256,13312,0.180369664,12.145,17.964,,75.40246914,462.594348
2003/10/3 7:50,,,,,,,,,,,,,,,,,,,,,,,,,,12.239,18.578,17.459,69.468,17.548,67.549,19.972,71.51,107.88012,20.36042161,390.3396827,412.3356647,65.52371639,,3.7642752,5.690822,9.008714597,20.19,13307,0.188731915,12.143,18.55,,78.71358025,278.5288357
2003/10/3 7:55,,,,,,,,,,,,,,,,,,,,,,,,,,12.241,18.796,17.668,66.968,17.715,65.905,20.13,69.264,113.39775,22.48535174,390.6041511,413.2955181,68.22103126,,5.4355392,6.681127,7.538126362,20.273,13303,0.198287459,12.145,19.01,,70.11604938,294.8675459
2003/10/3 8:00,,,,,,,,,,,,,,,,,,,,,,,,,,12.237,18.984,17.532,67.897,17.659,66.468,20.101,70.031,93.40884,17.31317746,390.261931,412.432441,53.92515254,,2.5385472,4.1333958,9.479302832,20.225,13300,0.185348383,12.142,19.331,,78.57777778,309.5550955
2003/10/3 8:05,,,,,,,,,,,,,,,,,,,,,,,,,,12.236,19.141,17.528,69.089,17.615,67.638,20.091,70.925,96.20856,17.93113711,390.4977255,413.3572575,55.41789089,,4.1001408,5.5904188,8.440087146,20.223,13298,0.186377773,12.143,19.57,,77.0962963,239.0911658
2003/10/3 8:10,,,,,,,,,,,,,,,,,,,,,,,,,,12.237,19.275,17.413,68.488,17.534,67.088,19.996,70.442,101.18988,19.16243097,390.0011151,412.5588591,59.46970503,,2.826432,4.6322742,9.111111111,20.131,13297,0.189371022,12.143,19.743,,74.15555556,243.8458169
2003/10/3 8:15,,,,,,,,,,,,,,,,,,,,,,,,,,12.242,19.389,17.493,68.997,17.569,67.507,20.018,71.064,121.3515,24.14958739,390.4260207,414.0645657,73.56336761,,5.1355584,5.9100618,6.481481481,20.163,13296,0.199005265,12.143,19.863,,78.35802469,260.9712058
2003/10/3 8:20,,,,,,,,,,,,,,,,,,,,,,,,,,12.248,19.503,17.632,67.917,17.691,66.696,20.154,69.779,135.09558,27.69175432,391.0238238,415.2877608,83.13988868,,6.4939392,7.577304,4.758169935,20.295,13296,0.204978981,12.143,19.937,,80.28888889,320.7587825
2003/10/3 8:25,,,,,,,,,,,,,,,,,,,,,,,,,,12.252,19.625,17.854,66.942,17.787,66.04,20.282,69.074,143.83107,30.05905783,391.2280328,416.3573378,88.64270717,,8.6300928,9.1339458,3.577342048,20.433,13296,0.208988627,12.144,20.007,,80.75555556,363.6111564
2003/10/3 8:30,,,,,,,,,,,,,,,,,,,,,,,,,,12.258,19.76,17.978,66.436,17.878,65.527,20.378,68.393,155.30265,32.76586913,390.6230877,417.2986017,95.86126687,,9.009504,9.450059,3.431372549,20.576,13295,0.210980747,12.144,20.095,,81.91604938,387.9203909
2003/10/3 8:35,,,,,,,,,,,,,,,,,,,,,,,,,,12.266,19.909,18.073,65.516,17.992,64.758,20.513,67.644,179.00028,38.74009583,390.0572306,419.7451706,110.5722442,,11.8371456,12.0040654,1.156862745,20.769,13295,0.216424778,12.144,20.212,,71.79259259,416.4569425
2003/10/3 8:40,,,,,,,,,,,,,,,,,,,,,,,,,,12.275,20.082,18.282,64.035,18.204,63.443,20.756,66.301,192.0717,42.18420329,392.2143592,422.6158642,119.4859917,,16.6505472,16.3398364,-1.559912854,21.096,13295,0.219627375,12.143,20.363,,80.47901235,481.4832802